Time,TemperatureF,DewpointF,PressureIn,WindDirection,WindDirectionDegrees,WindSpeedMPH,WindSpeedGustMPH,Humidity,HourlyPrecipIn,Conditions,Clouds,dailyrainin,SoftwareType,DateUTC
2013-08-31 04:00:00,66.0,-99.9,29.88,North,350,6.0,-999.0,-999,-99.99,,,-99.99,,2013-08-31 04:00:00,
2013-08-31 04:44:00,66.0,-99.9,29.88,North,350,6.0,-999.0,-999,-99.99,,,-99.99,,2013-08-31 04:44:00,
2013-08-31 04:54:00,66.0,-99.9,29.88,North,350,6.0,-999.0,-999,-99.99,,,-99.99,,2013-08-31 04:54:00,
2013-08-31 05:00:00,67.0,-99.9,29.87,North,0,9.0,-999.0,-999,-99.99,,,-99.99,,2013-08-31 05:00:00,
2013-08-31 05:43:00,67.0,-99.9,29.87,North,0,9.0,-999.0,-999,-99.99,,,-99.99,,2013-08-31 05:43:00,
2013-08-31 05:53:00,67.0,-99.9,29.87,North,0,9.0,-999.0,-999,-99.99,,,-99.99,,2013-08-31 05:53:00,
2013-08-31 06:00:00,67.0,-99.9,29.85,NNE,20,21.0,-999.0,-999,-99.99,,,-99.99,,2013-08-31 06:00:00,
2013-08-31 06:42:00,67.0,-99.9,29.85,NNE,20,21.0,-999.0,-999,-99.99,,,-99.99,,2013-08-31 06:42:00,
2013-08-31 06:52:00,67.0,-99.9,29.85,NNE,20,21.0,-999.0,-999,-99.99,,,-99.99,,2013-08-31 06:52:00,
2013-08-31 07:00:00,66.0,-99.9,29.86,NE,40,16.0,-999.0,-999,-99.99,,,-99.99,,2013-08-31 07:00:00,
2013-08-31 07:42:00,66.0,-99.9,29.86,NE,40,16.0,-999.0,-999,-99.99,,,-99.99,,2013-08-31 07:42:00,
2013-08-31 07:52:00,66.0,-99.9,29.86,NE,40,16.0,-999.0,-999,-99.99,,,-99.99,,2013-08-31 07:52:00,
2013-08-31 08:00:00,65.0,-99.9,29.88,NE,50,14.0,-999.0,-999,-99.99,,,-99.99,,2013-08-31 08:00:00,
2013-08-31 08:42:00,65.0,-99.9,29.88,NE,50,14.0,-999.0,-999,-99.99,,,-99.99,,2013-08-31 08:42:00,
2013-08-31 08:52:00,65.0,-99.9,29.88,NE,50,14.0,-999.0,-999,-99.99,,,-99.99,,2013-08-31 08:52:00,
2013-08-31 09:00:00,65.0,-99.9,29.88,NNE,30,13.0,-999.0,-999,-99.99,,,-99.99,,2013-08-31 09:00:00,
2013-08-31 09:44:00,65.0,-99.9,29.88,NNE,30,13.0,-999.0,-999,-99.99,,,-99.99,,2013-08-31 09:44:00,
2013-08-31 09:53:00,65.0,-99.9,29.88,NNE,30,13.0,-999.0,-999,-99.99,,,-99.99,,2013-08-31 09:53:00,
2013-08-31 10:00:00,65.0,-99.9,29.88,NE,50,13.0,-999.0,-999,-99.99,,,-99.99,,2013-08-31 10:00:00,
2013-08-31 10:43:00,65.0,-99.9,29.88,NE,50,13.0,-999.0,-999,-99.99,,,-99.99,,2013-08-31 10:43:00,
2013-08-31 10:53:00,65.0,-99.9,29.88,NE,50,13.0,-999.0,-999,-99.99,,,-99.99,,2013-08-31 10:53:00,
2013-08-31 11:00:00,66.0,-99.9,29.91,East,80,11.0,-999.0,-999,-99.99,,,-99.99,,2013-08-31 11:00:00,
2013-08-31 11:42:00,66.0,-99.9,29.91,East,80,11.0,-999.0,-999,-99.99,,,-99.99,,2013-08-31 11:42:00,
2013-08-31 11:52:00,66.0,-99.9,29.91,East,80,11.0,-999.0,-999,-99.99,,,-99.99,,2013-08-31 11:52:00,
2013-08-31 12:00:00,66.0,-99.9,29.91,ESE,110,6.0,-999.0,-999,-99.99,,,-99.99,,2013-08-31 12:00:00,
2013-08-31 12:42:00,66.0,-99.9,29.91,ESE,110,6.0,-999.0,-999,-99.99,,,-99.99,,2013-08-31 12:42:00,
2013-08-31 12:52:00,66.0,-99.9,29.91,ESE,110,6.0,-999.0,-999,-99.99,,,-99.99,,2013-08-31 12:52:00,
2013-08-31 13:00:00,67.0,-99.9,29.89,SW,230,24.0,-999.0,-999,-99.99,,,-99.99,,2013-08-31 13:00:00,
2013-08-31 13:42:00,67.0,-99.9,29.89,SW,230,24.0,-999.0,-999,-99.99,,,-99.99,,2013-08-31 13:42:00,
2013-08-31 13:52:00,67.0,-99.9,29.89,SW,230,24.0,-999.0,-999,-99.99,,,-99.99,,2013-08-31 13:52:00,
2013-08-31 18:00:00,69.0,-99.9,29.88,WNW,290,3.0,-999.0,-999,-99.99,,,-99.99,,2013-08-31 18:00:00,
2013-08-31 18:42:00,69.0,-99.9,29.88,WNW,290,3.0,-999.0,-999,-99.99,,,-99.99,,2013-08-31 18:42:00,
2013-08-31 18:52:00,69.0,-99.9,29.88,WNW,290,3.0,-999.0,-999,-99.99,,,-99.99,,2013-08-31 18:52:00,
2013-08-31 19:00:00,70.0,-99.9,29.88,NW,320,13.0,-999.0,-999,-99.99,,,-99.99,,2013-08-31 19:00:00,
2013-08-31 19:42:00,70.0,-99.9,29.88,NW,320,13.0,-999.0,-999,-99.99,,,-99.99,,2013-08-31 19:42:00,
2013-08-31 19:52:00,70.0,-99.9,29.88,NW,320,13.0,-999.0,-999,-99.99,,,-99.99,,2013-08-31 19:52:00,
2013-08-31 20:00:00,70.0,-99.9,29.87,NNW,340,15.0,-999.0,-999,-99.99,,,-99.99,,2013-08-31 20:00:00,
2013-08-31 20:43:00,70.0,-99.9,29.87,NNW,340,15.0,-999.0,-999,-99.99,,,-99.99,,2013-08-31 20:43:00,
2013-08-31 20:53:00,70.0,-99.9,29.87,NNW,340,15.0,-999.0,-999,-99.99,,,-99.99,,2013-08-31 20:53:00,
2013-08-31 21:00:00,71.0,-99.9,29.85,North,350,14.0,-999.0,-999,-99.99,,,-99.99,,2013-08-31 21:00:00,
2013-08-31 21:54:00,71.0,-99.9,29.85,North,350,14.0,-999.0,-999,-99.99,,,-99.99,,2013-08-31 21:54:00,
2013-08-31 22:00:00,71.0,-99.9,29.84,North,10,14.0,-999.0,-999,-99.99,,,-99.99,,2013-08-31 22:00:00,
2013-08-31 22:53:00,71.0,-99.9,29.84,North,10,14.0,-999.0,-999,-99.99,,,-99.99,,2013-08-31 22:53:00,
2013-08-31 23:00:00,73.0,-99.9,29.83,North,10,11.0,-999.0,-999,-99.99,,,-99.99,,2013-08-31 23:00:00,
2013-08-31 23:42:00,73.0,-99.9,29.83,North,10,11.0,-999.0,-999,-99.99,,,-99.99,,2013-08-31 23:42:00,
2013-08-31 23:52:00,73.0,-99.9,29.83,North,10,11.0,-999.0,-999,-99.99,,,-99.99,,2013-08-31 23:52:00,